P/2014 X1 ( Elenin )

Japanese version
Home page
Updated on December 31, 2016

---------------------------------------------------------------------

* Profile

Discovery Date December 12, 2014
Magnitude 18.0 mag
Discoverer Leonid Elenin (ISON-NM Observatory near Mayhill, NM, USA)

* Pictures

* Orbital Elements

Epoch 2015 Jan. 18.0 TT = JDT 2457040.5
T 2015 Jan. 7.74210 TT                                  MPCW
q   1.8148798            (2000.0)            P               Q
n   0.06295588     Peri.   34.36815     -0.05331372     -0.92132977
a   6.2581386      Node    61.56955     +0.78932261     -0.27510885
e   0.7099969      Incl.   25.97155     +0.61165960     +0.27471181
P  15.7
From 600 observations 2014 Sept. 4-2015 May 13, mean residual 0".4.

* Finding Charts

* Magnitudes Graph

        m1 = 9.5 + 5 log d + 22.0 log r(t - 80)

---------------------------------------------------------------------

The orbital elements are published on M.P.E.C. 2015-K84.
The charts are made with StellaNavigator Ver.8 (AstroArts).
The magnitudes graphs are made with Comet for Windows.

---------------------------------------------------------------------

Copyright(C) Seiichi Yoshida (comet@aerith.net). All rights reserved.